Total_Precipitation_Accumulation
0.35 0.60 0.82 0.73 0.80 0.84 0.70 0.70 0.77 0.72 0.57 0.63 0.65 0.57 0.61 0.59 0.57 0.47 0.41 0.37 0.32 0.29 0.31 0.30 0.29 0.29 0.28 0.30 0.34 0.41 0.59 0.75 0.90 1.00 1.13 1.38 1.55 1.64 1.63 1.63 1.70 1.62 1.44 1.52
0.50 0.57 0.47 0.49 0.53 0.61 0.65 0.69 0.72 0.62 0.48 0.53 0.59 0.55 0.55 0.54 0.49 0.38 0.34 0.33 0.28 0.24 0.22 0.22 0.21 0.22 0.22 0.22 0.26 0.34 0.49 0.73 0.97 1.17 1.34 1.53 1.84 2.00 2.00 2.06 2.01 1.96 1.85 1.87
0.45 0.42 0.35 0.40 0.46 0.54 0.59 0.59 0.62 0.57 0.55 0.53 0.54 0.59 0.57 0.55 0.45 0.34 0.26 0.26 0.22 0.18 0.20 0.21 0.21 0.19 0.17 0.18 0.20 0.27 0.40 0.63 0.92 1.22 1.46 1.65 1.88 2.14 2.24 2.15 2.10 2.13 2.21 2.26
0.41 0.35 0.31 0.36 0.39 0.48 0.66 0.43 0.42 0.44 0.52 0.63 0.55 0.75 0.64 0.56 0.49 0.38 0.29 0.27 0.24 0.20 0.20 0.19 0.19 0.23 0.20 0.20 0.21 0.25 0.39 0.55 0.76 1.01 1.33 1.58 1.84 2.15 2.22 2.20 2.17 2.21 2.33 2.42
0.40 0.36 0.34 0.38 0.35 0.39 0.51 0.34 0.36 0.43 0.42 0.46 0.43 0.64 0.66 0.52 0.52 0.46 0.38 0.33 0.27 0.23 0.22 0.20 0.19 0.22 0.26 0.26 0.26 0.33 0.47 0.61 0.78 0.99 1.31 1.63 1.82 1.99 2.19 2.20 2.12 2.05 2.12 2.14
0.42 0.34 0.33 0.33 0.28 0.29 0.36 0.37 0.38 0.39 0.41 0.47 0.34 0.48 0.62 0.56 0.49 0.46 0.41 0.35 0.26 0.19 0.20 0.24 0.27 0.29 0.31 0.36 0.39 0.47 0.59 0.78 0.91 1.00 1.13 1.29 1.50 1.78 1.92 2.02 2.06 2.07 2.07 1.95
0.40 0.33 0.24 0.20 0.28 0.29 0.32 0.46 0.60 0.59 0.59 0.52 0.28 0.41 0.52 0.45 0.39 0.39 0.38 0.34 0.29 0.27 0.31 0.38 0.48 0.45 0.43 0.48 0.59 0.65 0.72 0.80 0.84 0.82 0.88 1.00 1.17 1.38 1.52 1.61 1.81 1.88 1.92 1.87
0.35 0.31 0.23 0.18 0.21 0.29 0.30 0.37 0.57 0.65 0.58 0.47 0.40 0.53 0.55 0.44 0.38 0.37 0.37 0.31 0.29 0.34 0.42 0.57 0.69 0.73 0.70 0.69 0.71 0.69 0.70 0.66 0.66 0.69 0.75 0.81 0.88 1.02 1.13 1.21 1.37 1.50 1.50 1.48
0.33 0.29 0.16 0.15 0.13 0.20 0.26 0.22 0.24 0.39 0.38 0.44 0.48 0.60 0.59 0.42 0.36 0.38 0.38 0.32 0.33 0.46 0.58 0.75 0.88 0.95 0.91 0.83 0.77 0.74 0.75 0.71 0.63 0.63 0.70 0.76 0.81 0.82 0.85 0.90 0.89 0.97 1.06 1.09
0.26 0.29 0.19 0.12 0.12 0.14 0.18 0.18 0.24 0.43 0.57 0.60 0.54 0.61 0.69 0.57 0.46 0.46 0.50 0.52 0.60 0.75 0.81 0.92 1.00 1.00 0.98 1.03 0.98 0.81 0.76 0.78 0.70 0.76 0.76 0.73 0.72 0.70 0.68 0.72 0.77 0.78 0.87 0.98
0.23 0.29 0.22 0.13 0.14 0.16 0.17 0.21 0.32 0.48 0.56 0.74 0.86 0.94 0.75 0.62 0.61 0.60 0.65 0.82 0.86 0.95 1.01 1.03 1.10 1.03 0.91 0.91 0.90 0.88 0.82 0.78 0.79 0.82 0.82 0.71 0.69 0.68 0.68 0.66 0.68 0.76 0.85 0.95
0.27 0.36 0.30 0.15 0.15 0.19 0.29 0.40 0.53 0.77 0.76 0.73 1.01 1.17 0.83 0.69 0.71 0.73 0.72 0.70 0.70 0.86 0.96 0.99 1.05 0.98 0.83 0.78 0.69 0.72 0.81 0.82 0.88 0.89 0.81 0.72 0.72 0.75 0.80 0.78 0.70 0.71 0.77 0.79
0.35 0.51 0.49 0.32 0.34 0.38 0.43 0.51 0.64 0.79 0.92 0.92 1.02 1.13 0.87 0.66 0.64 0.70 0.78 0.74 0.71 0.74 0.75 0.74 0.74 0.81 0.77 0.74 0.66 0.71 0.77 0.83 0.87 0.89 0.87 0.78 0.67 0.70 0.75 0.76 0.68 0.66 0.70 0.74
0.30 0.47 0.58 0.52 0.48 0.50 0.47 0.42 0.47 0.70 0.97 0.98 1.02 0.99 0.77 0.65 0.63 0.65 0.70 0.74 0.69 0.58 0.54 0.52 0.48 0.53 0.56 0.58 0.63 0.68 0.78 0.90 0.95 0.93 0.86 0.83 0.77 0.79 0.74 0.64 0.62 0.64 0.63 0.61
0.22 0.24 0.25 0.24 0.22 0.27 0.34 0.37 0.45 0.58 0.77 0.99 0.89 0.68 0.57 0.56 0.52 0.54 0.60 0.52 0.45 0.41 0.39 0.37 0.33 0.34 0.36 0.38 0.47 0.53 0.67 0.82 0.95 0.99 0.94 0.87 0.81 0.71 0.64 0.58 0.51 0.52 0.48 0.48
0.28 0.22 0.11 0.10 0.12 0.17 0.29 0.42 0.55 0.61 0.68 0.70 0.62 0.58 0.44 0.39 0.35 0.36 0.41 0.40 0.38 0.33 0.28 0.25 0.24 0.22 0.25 0.30 0.37 0.37 0.49 0.64 0.76 0.81 0.82 0.83 0.79 0.63 0.55 0.49 0.42 0.40 0.41 0.43
0.13 0.17 0.14 0.10 0.10 0.19 0.41 0.54 0.60 0.59 0.55 0.47 0.43 0.39 0.28 0.25 0.19 0.19 0.24 0.28 0.31 0.29 0.24 0.21 0.20 0.21 0.24 0.30 0.32 0.33 0.42 0.54 0.58 0.62 0.66 0.68 0.64 0.51 0.45 0.36 0.32 0.35 0.36 0.39
0.12 0.16 0.23 0.16 0.15 0.37 0.62 0.52 0.46 0.49 0.39 0.24 0.21 0.22 0.20 0.16 0.12 0.10 0.11 0.13 0.14 0.17 0.17 0.21 0.19 0.17 0.20 0.25 0.30 0.38 0.41 0.42 0.43 0.47 0.50 0.50 0.49 0.44 0.37 0.30 0.29 0.31 0.34 0.38
0.19 0.25 0.30 0.27 0.28 0.45 0.57 0.38 0.35 0.40 0.36 0.18 0.13 0.12 0.10 0.08 0.07 0.05 0.05 0.06 0.07 0.06 0.07 0.10 0.10 0.10 0.11 0.11 0.12 0.15 0.17 0.20 0.24 0.32 0.38 0.42 0.42 0.38 0.33 0.28 0.35 0.41 0.41 0.40
0.32 0.34 0.35 0.35 0.41 0.54 0.40 0.16 0.16 0.28 0.42 0.16 0.08 0.06 0.05 0.05 0.06 0.04 0.04 0.06 0.05 0.03 0.03 0.04 0.06 0.05 0.05 0.04 0.04 0.04 0.06 0.10 0.13 0.20 0.26 0.32 0.35 0.37 0.40 0.48 0.56 0.56 0.53 0.47
0.20 0.26 0.33 0.42 0.61 0.61 0.36 0.14 0.16 0.30 0.43 0.22 0.08 0.04 0.03 0.03 0.02 0.02 0.04 0.05 0.03 0.02 0.01 0.02 0.04 0.04 0.04 0.03 0.02 0.01 0.02 0.02 0.03 0.05 0.10 0.20 0.33 0.39 0.47 0.58 0.60 0.59 0.53 0.45
0.19 0.30 0.41 0.53 0.70 0.78 0.39 0.20 0.23 0.22 0.14 0.11 0.05 0.03 0.02 0.02 0.02 0.02 0.03 0.03 0.02 0.02 0.02 0.02 0.03 0.03 0.04 0.04 0.03 0.02 0.02 0.02 0.02 0.04 0.08 0.14 0.22 0.31 0.45 0.53 0.52 0.50 0.49 0.46
0.19 0.35 0.48 0.53 0.58 0.49 0.29 0.19 0.14 0.10 0.09 0.04 0.02 0.01 0.01 0.01 0.02 0.03 0.04 0.03 0.02 0.02 0.03 0.03 0.04 0.04 0.04 0.03 0.05 0.04 0.04 0.04 0.03 0.02 0.04 0.07 0.12 0.23 0.38 0.41 0.41 0.43 0.46 0.45
0.09 0.12 0.19 0.21 0.16 0.15 0.12 0.09 0.05 0.04 0.04 0.01 0.01 0.01 0.01 0.01 0.02 0.02 0.02 0.03 0.03 0.03 0.02 0.02 0.02 0.03 0.03 0.02 0.03 0.05 0.05 0.05 0.04 0.02 0.02 0.02 0.04 0.06 0.12 0.16 0.21 0.27 0.32 0.33
0.09 0.11 0.17 0.21 0.11 0.06 0.05 0.04 0.03 0.02 0.02 0.01 0.00 0.01 0.01 0.01 0.02 0.02 0.01 0.01 0.02 0.03 0.03 0.02 0.01 0.01 0.01 0.01 0.01 0.02 0.03 0.04 0.05 0.04 0.02 0.02 0.04 0.05 0.05 0.07 0.11 0.14 0.16 0.20
0.06 0.12 0.17 0.20 0.13 0.07 0.04 0.03 0.02 0.02 0.01 0.01 0.01 0.00 0.00 0.01 0.01 0.02 0.01 0.01 0.01 0.02 0.03 0.02 0.02 0.01 0.01 0.01 0.01 0.01 0.01 0.01 0.03 0.05 0.04 0.02 0.02 0.03 0.03 0.05 0.06 0.07 0.08 0.10